Retour au catalogue

NOAA 16 DEB

ActifSSO
NORAD 41219·DEBRIS·🇺🇸 United States

Lancé Sep 21, 2000 depuis Vandenberg Space Force Base

Loading…

Prochains Passages (prochaines 24 heures)

TLE

FraisSource: Space-Track

Époque: Sep 14, 2026, 02:45 UTC

1 41219U 00055DY  26257.11508782  .00002037  00000-0  82193-3 0  9999
2 41219  98.6133 310.1688 0006250 235.7172 124.3418 14.29034984556751

Suivez NOAA 16 DEB en temps réel avec AllMySat

Download on the App Store